This is the latest recevied weather packets stored in our database for station/object K7MT-WX. If no packets are shown the sender has not sent any weather packets the latest 10 day(s).
| Time | Temp. | Humidity | Pressure | Rain* | Wind** | Luminosity | Snow |
|---|---|---|---|---|---|---|---|
| 1788359796 | 12.22° C | 93% | 1009.7 hPa | 0 mm | - | - | - |
| 1788358907 | 11.67° C | 94% | 1009.8 hPa | 0 mm | - | - | - |
| 1788357996 | 11.67° C | 94% | 1009.7 hPa | 0 mm | - | - | - |
| 1788357096 | 11.11° C | 94% | 1010 hPa | 0 mm | - | - | - |
| 1788356166 | 11.11° C | 94% | 1010.1 hPa | 0 mm | - | - | - |
| 1788355266 | 10.56° C | 94% | 1010 hPa | 0 mm | - | - | - |
| 1788354365 | 11.11° C | 94% | 1010.1 hPa | 0 mm | - | - | - |
| 1788353465 | 10.56° C | 93% | 1010 hPa | 0 mm | - | - | - |
| 1788352565 | 10.56° C | 93% | 1010.2 hPa | 0 mm | - | - | - |
| 1788351665 | 11.11° C | 92% | 1010.3 hPa | 0 mm | - | - | - |
| 1788350765 | 11.11° C | 92% | 1010.4 hPa | 0 mm | - | - | - |
| 1788349865 | 11.11° C | 92% | 1010.5 hPa | 0 mm | - | - | - |
| 1788348965 | 11.11° C | 92% | 1010.7 hPa | 0 mm | - | - | - |
| 1788348065 | 11.67° C | 91% | 1010.7 hPa | 0 mm | - | - | - |
| 1788347165 | 12.22° C | 90% | 1010.5 hPa | 0 mm | - | - | - |
| 1788346265 | 12.22° C | 90% | 1010.5 hPa | 0 mm | - | - | - |
| 1788345366 | 12.78° C | 90% | 1010.7 hPa | 0 mm | - | - | - |
| 1788344466 | 12.78° C | 90% | 1010.6 hPa | 0 mm | - | - | - |
| 1788343565 | 12.78° C | 88% | 1010.8 hPa | 0 mm | - | - | - |
| 1788342665 | 13.33° C | 87% | 1010.7 hPa | 0 mm | - | - | - |
| 1788341765 | 13.89° C | 87% | 1010.7 hPa | 0 mm | - | - | - |
| 1788340865 | 13.89° C | 86% | 1010.7 hPa | 0 mm | - | - | - |
| 1788339965 | 14.44° C | 85% | 1010.6 hPa | 0.25 mm | - | - | - |
| 1788339065 | 14.44° C | 86% | 1011 hPa | 0.51 mm | - | - | - |
| 1788338165 | 13.89° C | 87% | 1011.7 hPa | 1.27 mm | - | - | - |
* Rain latest hour (hover to see other rain measurements)
** Current wind speed in m/s (hover to see current wind gust speed)